{"data":{"norad_id":62387,"intl_designator":"2024-247L","name":"BANDWAGON-2 OBJECT L","alt_names":[],"object_type":"PAYLOAD","status":"ACTIVE","operator":null,"country":"TBD","launch_date":"2024-12-21","launch_site_code":"AFWTR","launch_vehicle":null,"mission":null,"orbit_class":"UNKNOWN","rcs_meters":null,"size_class":null,"mass_kg":null,"dimensions":null,"purposes":[],"wikipedia_slug":null,"has_3d_model":false,"image_url":null,"decayed_at":null,"tle_current":{"epoch":"2026-05-25T00:16:54.444000Z","epoch_age_seconds":69928,"freshness":"FRESH","line1":"1 62387U 24247L   26145.01174125  .00042110  00000+0  71173-3 0  9993","line2":"2 62387  44.9920  20.0515 0007616 176.9482 183.1458 15.50941763 79889","mean_motion":15.50941763,"eccentricity":0.0007616,"inclination_deg":44.992,"raan_deg":20.0515,"arg_perigee_deg":176.9482,"mean_anomaly_deg":183.1458,"bstar":0.00071173,"rev_number":7988,"period_min":92.846813101131,"perigee_km":408.80226657617,"apogee_km":419.14801178657,"semimajor_km":6792.1121391814,"source":"CELESTRAK","updated_at":"2026-05-25T13:38:02.946400Z"}}}